Location: Taukkyan
(23.1052°N, 94.0030°E)
Time: 11:14:53
(UTC+00:00)

ATLAS 2AS CENTAUR R/B - Pass Details

Date: 06 July 2020
Orbit: 930 x 1282 km, 63.7° (Epoch: 19 July)

Event Time Altitude Azimuth Distance (km) Brightness Sun altitude
Rises 16:32:55 0° 347° (NNW) 4,062 6.6 -40.7°
Reaches altitude 10° 16:36:13 10° 358° (N) 3,040 5.7 -41.0°
Enters shadow 16:40:19 25° 30° (NNE) 2,073 4.4 -41.4°
